Location: Wells
(51.2093°N, 2.6446°W)
Time: 08:25:59
(UTC+00:00)

SO-50 - Visible Passes

Search period start: 14 March 2026 00:00
Search period end: 24 March 2026 00:00
Orbit: 568 x 673 km, 64.6° (Epoch: 13 March)

Date Brightness Start Highest point End Pass type
(mag) Time Alt. Az. Time Alt. Az. Time Alt. Az.
14 Mar ? 19:39:49 10° WSW 19:44:26 54° NW 19:49:10 10° NE visible
14 Mar ? 21:21:48 10° WNW 21:25:24 21° NNW 21:28:40 11° NNE visible
14 Mar ? 23:03:53 10° NW 23:05:50 16° NNW 23:05:50 16° NNW visible
15 Mar ? 19:58:02 10° W 20:02:23 36° NW 20:06:50 10° NNE visible
15 Mar ? 21:40:25 10° NW 21:43:40 18° N 21:46:07 13° NNE visible
15 Mar ? 23:21:54 10° NNW 23:23:17 15° NNW 23:23:17 15° NNW visible
16 Mar ? 20:16:29 10° W 20:20:28 26° NNW 20:24:32 10° NNE visible
16 Mar ? 21:58:54 10° NW 22:01:59 17° N 22:03:29 15° NNE visible
16 Mar ? 23:39:42 10° NNW 23:40:38 14° NNW 23:40:38 14° NNW visible
17 Mar ? 18:53:04 10° WSW 18:57:40 53° NW 19:02:23 10° NE visible
17 Mar ? 20:35:04 10° WNW 20:38:39 21° NNW 20:42:17 10° NNE visible
17 Mar ? 22:17:08 10° NW 22:20:18 17° N 22:20:47 17° NNE visible
17 Mar ? 23:57:24 10° NNW 23:57:56 13° NNW 23:57:56 13° NNW visible
18 Mar ? 19:11:17 10° W 19:15:37 35° NNW 19:20:04 10° NNE visible
18 Mar ? 20:53:40 10° NW 20:56:55 18° N 21:00:10 10° NNE visible
18 Mar ? 22:35:07 10° NNW 22:38:03 19° N 22:38:03 19° N visible
19 Mar ? 00:15:04 10° NW 00:15:12 11° NW 00:15:12 11° NW visible
19 Mar ? 19:29:43 10° W 19:33:42 26° NNW 19:37:44 10° NNE visible
19 Mar ? 21:12:08 10° NW 21:15:13 17° N 21:18:07 11° NE visible
19 Mar ? 22:52:54 10° NNW 22:55:16 20° N 22:55:16 20° N visible
20 Mar ? 19:48:18 10° WNW 19:51:52 20° NNW 19:55:28 10° NNE visible
20 Mar ? 21:30:21 10° NW 21:33:31 17° N 21:35:19 14° NNE visible
20 Mar ? 23:10:36 10° NNW 23:12:28 20° NNW 23:12:28 20° NNW visible
21 Mar ? 20:06:53 10° NW 20:10:07 18° N 20:13:22 10° NNE visible
21 Mar ? 21:48:18 10° NNW 21:51:46 19° NNE 21:52:30 19° NNE visible
21 Mar ? 23:28:14 10° NW 23:29:39 19° NNW 23:29:39 19° NNW visible
22 Mar ? 20:25:20 10° NW 20:28:24 17° N 20:31:29 10° NE visible
22 Mar ? 22:06:04 10° NNW 22:09:41 24° NNE 22:09:41 24° NNE visible
22 Mar ? 23:45:54 10° NW 23:46:50 16° NW 23:46:50 16° NW visible
23 Mar ? 19:01:30 10° WNW 19:05:02 20° NNW 19:08:38 10° NNE visible
23 Mar ? 20:43:31 10° NW 20:46:42 17° N 20:49:43 11° NE visible
23 Mar ? 22:23:44 10° NNW 22:26:52 28° N 22:26:52 28° N visible
